カタログに戻る

COSMOS 1013

運用中軍事LEO
NORAD 10930·PAYLOAD·🇷🇺 Russia

打ち上げ Jun 7, 1978 から Plesetsk Cosmodrome

Loading…

次のパス (今後24時間)

TLE

最新Source: Space-Track

元期: Sep 14, 2026, 14:55 UTC

1 10930U 78056A   26257.62201648 -.00000012  00000-0  27523-4 0  9997
2 10930  74.0306  13.9780 0048606 272.6702  98.3023 12.37819757181233

AllMySatでCOSMOS 1013をリアルタイム追跡

Download on the App Store